Regional Weather Roundup
Issued by NWS

Home | Current Version | Previous Version | Graphics & Text | Print | Product List | Glossary On
Versions: 1 2 3 4 5 6 7 8 9 10 11 12 13 14 15 16 17 18 19 20 21 22 23 24 25 26 27 28 29 30 31 32 33 34 35 36 37 38 39 40 41 42 43 44 45 46 47 48 49 50
000
ASUS43 KOAX 180102
RWRNE

WEATHER ROUNDUP FOR NEBRASKA
NATIONAL WEATHER SERVICE OMAHA NE
700 PM CST SUN DEC 17 2017

NOTES: SATELLITE DATA IS BEING USED TO AUGMENT CLOUD COVER ABOVE
       12000 FEET.
       "FAIR" INDICATES FEW OR NO CLOUDS BELOW 12,000 FEET WITH NO
       SIGNIFICANT WEATHER AND/OR OBSTRUCTIONS TO VISIBILITY.


NEZ001>004-019>022-054>056-180200-
NEBRASKA PANHANDLE

CITY           SKY/WX    TMP DP  RH WIND       PRES   REMARKS
SCOTTSBLUFF    CLEAR     40  18  41 W14       29.88R WCI  32
ALLIANCE       CLEAR     22  18  85 SW10      29.86R WCI  11
CHADRON        CLEAR     36  22  56 W12       29.86R WCI  28
GORDON         FAIR      26  21  83 CALM      29.83S
KIMBALL        CLEAR     27  23  84 SW8       29.91R WCI  19
SIDNEY         CLEAR     26  22  84 SW8       29.92R WCI  18
$$

NEZ057>060-069>072-079>082-180200-
SOUTHWEST NEBRASKA

CITY           SKY/WX    TMP DP  RH WIND       PRES   REMARKS
NORTH PLATTE   CLEAR     25  24  96 CALM      29.94S
IMPERIAL       CLEAR     27  24  89 SW8       29.95R WCI  19
LEXINGTON      CLOUDY    37  31  79 CALM      29.97S
MCCOOK         CLEAR     34  29  82 SW3       29.97R
OGALLALA       CLEAR     32  27  81 CALM      29.92R
$$

NEZ005>010-023>029-035>040-094-180200-
NORTH CENTRAL NEBRASKA

CITY           SKY/WX    TMP DP  RH WIND       PRES   REMARKS
VALENTINE      CLEAR     33  27  78 S7        29.89S WCI  27
AINSWORTH      CLEAR     28  27  93 S6        29.91S WCI  22
BROKEN BOW     CLOUDY    33  29  85 SW3       29.95S
O`NEILL        CLOUDY    36  30  78 SE3       29.96S
ORD            CLOUDY    36  29  75 SW3       29.96R
THEDFORD       CLEAR     31  30  96 S6        29.92S WCI  26
$$

NEZ041-046>049-061>064-073>077-083>087-180200-
SOUTH CENTRAL NEBRASKA

CITY           SKY/WX    TMP DP  RH WIND       PRES   REMARKS
GRAND ISLAND   CLOUDY    32  28  85 NW6       29.99R WCI  26
AURORA         CLOUDY    33  28  82 CALM      29.98R
HASTINGS       MOCLDY    36  29  75 W5        29.99R WCI  32
HEBRON         CLOUDY    31  28  87 CALM      30.00R
HOLDREGE       MOCLDY    34  29  82 CALM      29.98R
KEARNEY        PTCLDY    33  27  78 NW3       29.99R
YORK           CLOUDY    32  28  86 N5        29.99R WCI  27
$$

NEZ011>018-030>034-042>045-180200-
NORTHEAST NEBRASKA

CITY           SKY/WX    TMP DP  RH WIND       PRES   REMARKS
NORFOLK        PTCLDY    29  23  78 W3        29.97S
ALBION         CLOUDY    34  28  80 CALM      29.98R
BLAIR          PTCLDY    29  27  90 CALM      29.98S FOG
COLUMBUS       CLOUDY    30  26  85 CALM      29.99R
FREMONT        PTCLDY    29  26  88 CALM      29.99S
TEKAMAH        CLOUDY    28  21  75 CALM      30.00S HAZE
WAYNE          CLOUDY    30  28  91 CALM      29.98S
$$

NEZ050>053-065>068-078-088>093-180200-
SOUTHEAST NEBRASKA

CITY           SKY/WX    TMP DP  RH WIND       PRES   REMARKS
LINCOLN        PTCLDY    34  28  79 CALM      30.01R
OMAHA EPPLEY   MOCLDY    29  23  78 CALM      30.00S
BEATRICE       CLOUDY    32  31  96 CALM      30.00R FOG
FALLS CITY     CLOUDY    38  35  89 N5        30.00R WCI  34
NEBRASKA CITY  PTCLDY    32  32 100 SW3       30.00R FOG
PLATTSMOUTH    PTCLDY    32  30  92 W3        30.00R
$$

NEZ044-045-051>053-067-180200-
OMAHA AREA

CITY           SKY/WX    TMP DP  RH WIND       PRES   REMARKS
OMAHA EPPLEY   MOCLDY    29  23  78 CALM      30.00S
BLAIR          PTCLDY    29  27  90 CALM      29.98S FOG
FREMONT        PTCLDY    29  26  88 CALM      29.99S
MILLARD        MOCLDY    33  28  83 CALM      30.00R
OFFUTT AFB     PTCLDY    29  26  87 NE3       29.99S
PLATTSMOUTH    PTCLDY    32  30  92 W3        30.00R
WAHOO          FAIR      27  24  89 CALM      30.00R FOG
$$




USA.gov is the U.S. government's official web portal to all federal, state and local government web resources and services.